Volver al catálogo

STARLINK-36467

ActivoComunicacionesVLEO
NORAD 67348·PAYLOAD·🇺🇸 United States

Lanzado Jan 9, 2026 desde Cape Canaveral Space Force Station

Loading…

Próximos Pases (próximas 24 horas)

TLE

ActualizadoSource: CelesTrak SupGP

Época: Sep 15, 2026, 03:46 UTC

1 67348C 26003Q   26258.15743056 -.00023453  00000+0 -85022-3 0  2589
2 67348  43.0022 237.2236 0001195 266.1795 272.1721 15.27561031    12

Sigue STARLINK-36467 en tiempo real con AllMySat

Download on the App Store